Weather History for Hollywood, FL

Change the Weather History Date:

Tuesday, December 18, 2012

  Actual Average (KFLL) Record (KFLL)
Temperature  
Mean Temperature 74 °F 71 °F  
Max Temperature 82 °F 78 °F 87 °F (1989)
Min Temperature 66 °F 64 °F 38 °F (1973)
Degree Days  
Heating Degree Days 0 1  
Month to date heating degree days 13  
Since 1 July heating degree days 15  
Cooling Degree Days 9 7  
Month to date cooling degree days 139  
Year to date cooling degree days 4652  
Growing Degree Days 24 (Base 50)    
Moisture  
Dew Point 66 °F    
Average Humidity 79    
Maximum Humidity 100    
Minimum Humidity 51    
Precipitation  
Precipitation 0.00 in 0.09 in 2.45 in (2009)
Month to date precipitation 1.55  
Year to date precipitation 61.27  
Snow  
Snow 0.00 in - - ()
Month to date snowfall  
Since 1 July snowfall  
Snow Depth -    
Sea Level Pressure  
Sea Level Pressure 29.99 in    
Wind  
Wind Speed 3 mph (WNW)    
Max Wind Speed 12 mph    
Max Gust Speed 17 mph    
Visibility 10 miles    
Events      
T = Trace of Precipitation, MM = Missing Value Source: NWS Daily Summary

Daily Weather History Graph

Daily Weather History Graph

Search for Another Location

Airport:

Trip Planner

Search our weather history database for the weather conditions in past years. The results will help you decide how hot, cold, wet, or windy it might be!

Date:

Astronomy

Dec. 18, 2012 Rise Set
Actual Time 7:02 AM EST 5:33 PM EST
Civil Twilight 6:37 AM EST 5:58 PM EST
Nautical Twilight 6:08 AM EST 6:27 PM EST
Astronomical Twilight 5:40 AM EST 6:55 PM EST
Moon 11:11 AM EST (12/18) 11:24 PM EST (12/18)
Length of Visible Light 11h 21m
Length of Day
10h 30m
Waxing Crescent, 34% of the Moon is Illuminated
Dec 18
Waxing Crescent
Dec 20
First Quarter
Dec 28
Full
Jan 4
Last Quarter
Jan 11
New

Hourly Weather History & Observations

Time (EST) Temp. Heat Index Dew Point Humidity Pressure Visibility Wind Dir Wind Speed Gust Speed Precip Events Conditions
12:53 AM 68.0 °F - 66.0 °F 93% 29.96 in 10.0 mi Calm Calm - N/A   Clear
1:53 AM 66.9 °F - 66.9 °F 100% 29.96 in 10.0 mi Calm Calm - N/A   Clear
2:30 AM 66.2 °F - 66.2 °F 100% 29.96 in 10.0 mi Calm Calm - N/A   Mostly Cloudy
2:53 AM 66.9 °F - 66.0 °F 97% 29.95 in 10.0 mi Calm Calm - N/A   Mostly Cloudy
3:42 AM 66.2 °F - 66.2 °F 100% 29.95 in 10.0 mi Calm Calm - N/A   Mostly Cloudy
3:53 AM 66.9 °F - 66.0 °F 97% 29.96 in 10.0 mi Calm Calm - N/A   Mostly Cloudy
4:53 AM 68.0 °F - 66.0 °F 93% 29.95 in 10.0 mi South 4.6 mph - N/A   Clear
6:53 AM 66.9 °F - 66.0 °F 97% 29.98 in 10.0 mi Calm Calm - N/A   Clear
7:53 AM 68.0 °F - 68.0 °F 100% 30.00 in 10.0 mi Calm Calm - N/A   Clear
8:53 AM 73.9 °F - 71.1 °F 91% 30.02 in 10.0 mi WNW 6.9 mph - N/A   Clear
9:53 AM 77.0 °F - 68.0 °F 74% 30.03 in 10.0 mi West 9.2 mph - N/A   Clear
10:53 AM 79.0 °F - 66.0 °F 64% 30.03 in 10.0 mi WNW 11.5 mph - N/A   Clear
11:53 AM 81.0 °F 83.3 °F 66.9 °F 62% 30.01 in 10.0 mi West 8.1 mph - N/A   Clear
12:53 PM 81.0 °F 82.7 °F 64.9 °F 58% 29.98 in 10.0 mi West 11.5 mph - N/A   Clear
1:53 PM 81.0 °F 83.0 °F 66.0 °F 60% 29.97 in 10.0 mi West 11.5 mph 17.3 mph N/A   Mostly Cloudy
2:53 PM 82.0 °F 83.8 °F 64.9 °F 56% 29.96 in 10.0 mi West 8.1 mph - N/A   Partly Cloudy
3:53 PM 82.9 °F 84.0 °F 63.0 °F 51% 29.96 in 10.0 mi WNW 6.9 mph - N/A   Scattered Clouds
4:53 PM 81.0 °F 82.5 °F 64.0 °F 56% 29.96 in 10.0 mi West 5.8 mph - N/A   Partly Cloudy
5:53 PM 78.1 °F - 64.0 °F 62% 29.98 in 10.0 mi WNW 5.8 mph - N/A   Clear
6:53 PM 75.9 °F - 64.0 °F 67% 30.00 in 10.0 mi WNW 5.8 mph - N/A   Clear
7:53 PM 73.9 °F - 64.0 °F 71% 30.01 in 10.0 mi WNW 6.9 mph - N/A   Clear
8:53 PM 73.0 °F - 64.9 °F 76% 30.03 in 10.0 mi NW 5.8 mph - N/A   Clear
9:53 PM 72.0 °F - 64.9 °F 78% 30.03 in 10.0 mi WNW 4.6 mph - N/A   Clear
10:53 PM 70.0 °F - 66.0 °F 87% 30.04 in 10.0 mi WNW 3.5 mph - N/A   Clear
11:53 PM 70.0 °F - 66.9 °F 90% 30.04 in 10.0 mi WNW 5.8 mph - N/A   Clear